Location: Chelle
(43.1367°N, 0.2418°E)
Time: 21:54:12
(UTC+00:00)

Daily predictions for brighter satellites

Satellite Brightness Start Highest point End
(mag) Time Altitude Azimuth Time Altitude Azimuth Time Altitude Azimuth
Cosmos 1238 Rocket 4.2 17:50:16 10° SSE 17:56:14 56° E 18:02:44 10° NNE
Okean-O 2.7 17:55:38 10° SSE 18:00:04 86° ENE 18:04:32 10° NNW
Abrixas rocket 2.7 17:57:13 10° WNW 18:00:07 53° SSW 18:03:00 10° SE
STARLINK-48 4.5 17:58:17 10° W 18:01:59 41° NNW 18:05:42 10° NE
STARLINK-1010 3.9 17:59:51 10° SSW 18:02:38 30° SE 18:05:25 10° ENE
Cosmos 2278 Rocket 3.9 17:59:36 10° WSW 18:04:41 33° NW 18:09:47 10° N
NOSS 3-1 (C) 3.7 18:00:54 10° S 18:05:57 42° ESE 18:11:39 10° NE
Cosmos 2100 Rocket 4.2 18:00:28 10° S 18:06:50 84° W 18:13:12 10° N
USA 116 4.4 18:03:20 10° NNE 18:06:59 38° E 18:11:03 10° SSE
CSL-04 Debris 4.4 18:03:11 10° SE 18:08:22 47° ENE 18:13:35 10° N
Envisat 3.8 18:03:38 10° S 18:08:37 58° W 18:13:39 10° NNW
Cosmos 1607 4.1 18:02:58 10° NNW 18:09:09 56° NE 18:15:24 10° SE
NOAA 11 4.3 18:03:55 10° SE 18:09:11 52° ENE 18:14:27 10° N
Cosmos 2228 Rocket 3.9 18:06:12 10° NNW 18:10:40 59° W 18:15:09 10° S
STARLINK-1008 3.6 18:07:44 10° SSW 18:10:41 37° SE 18:13:38 10° ENE
STARLINK-58 3.2 18:07:50 10° SW 18:11:21 75° SE 18:14:55 10° ENE
deb Kosmos-1763 4.3 18:08:00 10° N 18:11:35 47° ENE 18:15:08 10° SE
STARLINK-1016 3.6 18:08:46 10° SSW 18:11:43 37° SE 18:14:40 10° ENE
STARLINK-1025 3.6 18:09:53 10° SSW 18:12:51 39° SE 18:15:48 10° ENE
STARLINK-62 3.2 18:09:31 10° SW 18:13:03 80° SE 18:16:36 10° NE
STARLINK-1017 3.5 18:10:59 10° SSW 18:13:58 40° SE 18:16:52 11° ENE
STARLINK-34 3.2 18:11:06 10° SW 18:14:38 83° SE 18:18:11 10° NE
OE (NEXTSAT) 4.4 18:11:16 10° WSW 18:14:44 72° SSE 18:18:03 11° ENE
Cosmos 1459 Rocket 4.2 18:09:56 10° SSW 18:15:59 78° W 18:22:05 10° N
Sich 1 3.0 18:12:03 10° S 18:16:17 60° E 18:20:30 10° NNE
STARLINK-1048 3.4 18:14:19 10° SSW 18:17:20 43° SE 18:20:08 12° ENE
Cosmos 1805 Rocket 3.6 18:13:20 10° S 18:17:42 88° ESE 18:22:06 10° N
STARLINK-1029 3.9 18:14:58 10° SSW 18:17:49 31° SE 18:20:19 12° ENE
STARLINK-1028 3.4 18:15:20 10° SSW 18:18:23 44° SE 18:21:10 12° ENE
STARLINK-1049 3.4 18:15:26 10° SSW 18:18:28 44° SE 18:21:14 12° ENE
Cosmos 1992 Rocket 4.5 18:13:47 10° SSW 18:18:59 66° WNW 18:24:13 10° NNE
STARLINK-1021 3.3 18:16:31 10° SSW 18:19:35 46° SE 18:22:20 12° ENE
STARLINK-1051 3.3 18:16:36 10° SSW 18:19:39 46° SE 18:22:23 12° ENE
STARLINK-1019 3.3 18:17:44 10° SW 18:20:48 47° SE 18:23:30 13° ENE
COSMO-SKYMED 1 2.8 18:17:11 10° N 18:21:32 76° WNW 18:25:51 10° SSW
STARLINK-1012 3.3 18:18:57 10° SW 18:22:02 49° SE 18:24:41 13° ENE
YAOGAN 6 4.1 18:20:56 10° S 18:24:16 40° W 18:27:35 10° NNW
STARLINK-1026 3.2 18:21:22 10° SW 18:24:28 52° SE 18:27:03 14° ENE
Cosmos 44 4.5 18:21:41 10° N 18:25:00 20° NE 18:27:29 14° E
Cosmos 1862 Rocket 4.4 18:21:17 10° NNE 18:25:01 28° ENE 18:28:45 10° SE
STARLINK-1013 3.1 18:22:36 10° SW 18:25:44 53° SE 18:28:16 14° ENE
Cosmos 2061 Rocket 4.1 18:19:35 10° S 18:26:01 89° E 18:32:27 10° N
STARLINK-24 3.5 18:22:33 10° SW 18:26:34 84° SE 18:30:20 12° NE
STARLINK-1009 3.1 18:23:50 10° SW 18:26:58 55° SE 18:29:27 15° ENE
Cosmos 1707 Rocket 3.5 18:23:45 10° N 18:28:12 67° E 18:32:37 10° SSE
STARLINK-1015 3.1 18:25:05 10° SW 18:28:14 57° SE 18:30:41 15° ENE
Cosmos 1943 Rocket 2.4 18:23:45 10° S 18:29:07 49° ESE 18:34:28 10° NE
Cosmos 2346 Rocket 4.4 18:23:07 10° N 18:29:24 78° E 18:35:34 10° S
Cosmos 1725 Rocket 3.9 18:23:56 10° S 18:30:05 76° E 18:36:16 10° N
Cosmos 1782 4.2 18:27:21 10° NNW 18:31:10 43° W 18:34:57 10° SSW
HJ-1C 4.2 18:29:25 10° SE 18:32:17 28° ENE 18:35:11 10° N
STARLINK-81 3.5 18:30:55 10° SW 18:34:56 89° SE 18:38:19 14° NE
Meteor 1-10 Rocket 4.2 18:29:36 10° N 18:35:16 88° E 18:40:49 10° S
STARLINK-54 3.6 18:32:45 10° WSW 18:36:47 82° NNW 18:40:09 14° NE
STARLINK-77 3.5 18:34:13 10° SW 18:38:15 86° NW 18:41:30 15° NE
NOSS 2-3 (E) 4.5 18:34:47 10° S 18:38:27 29° ESE 18:41:17 16° ENE
SL-4 R/B 2.5 18:33:43 10° WNW 18:38:29 72° SW 18:42:57 10° SE
STARLINK-25 3.5 18:35:53 10° SW 18:39:54 84° NW 18:43:06 16° NE
Cosmos 1862 3.4 18:36:24 10° S 18:40:23 80° W 18:44:24 10° N
SL-27 R/B 2.7 18:37:15 10° N 18:40:26 40° ENE 18:43:13 12° SE
BREEZE-M DEB (TANK) 3.5 18:39:02 10° NW 18:41:37 45° NNE 18:45:03 18° E
STARLINK-71 3.6 18:37:44 10° WSW 18:41:46 75° NNW 18:44:56 16° NE
Cosmos 1340 3.4 18:39:32 10° SSE 18:42:50 30° E 18:46:09 10° NNE
STARLINK-79 3.6 18:39:11 10° WSW 18:43:12 80° NW 18:46:15 17° NE
ADEOS Rocket 3.6 18:36:00 10° NNE 18:43:45 68° ESE 18:51:24 10° S
STARLINK-78 3.6 18:40:51 10° WSW 18:44:53 77° NNW 18:47:53 17° NE
STARLINK-64 3.9 18:42:42 10° WSW 18:46:12 50° NNW 18:48:49 16° NE
BREEZE-M DEB (TANK) 4.2 18:44:25 10° WNW 18:46:33 23° N 18:47:39 18° NE
STARLINK-57 3.7 18:42:35 10° WSW 18:46:37 72° NNW 18:49:34 18° NE
Tsikada Rocket 4.0 18:41:16 10° N 18:47:40 86° E 18:54:05 10° S
H-2A R/B 2.8 18:43:04 10° SE 18:47:43 32° ENE 18:52:29 10° N
CRYOSAT 2 4.4 18:43:13 10° SSE 18:48:00 58° E 18:52:50 10° N
STARLINK-1027 4.3 18:44:12 10° SSW 18:48:08 38° SE 18:50:06 24° E
STARLINK-49 3.7 18:44:09 10° WSW 18:48:10 73° NW 18:51:02 18° NE
STARLINK-27 3.7 18:45:50 10° WSW 18:49:50 71° NW 18:52:39 19° NE
USA 234 4.5 18:45:38 13° ENE 18:50:12 28° N 18:55:31 10° NW
STARLINK-74 3.7 18:47:27 10° WSW 18:51:28 69° NNW 18:54:12 19° NE
Lacrosse 4 Rocket 3.2 18:48:03 10° WSW 18:51:51 32° NW 18:55:45 10° NNE
Ariane Rocket 3.2 18:47:16 10° SE 18:52:09 49° ENE 18:57:05 10° N
STARLINK-39 3.8 18:49:09 10° WSW 18:53:09 67° NNW 18:55:49 20° NE
NOSS 2-3 (D) 4.1 18:49:18 10° S 18:53:11 37° ESE 18:55:25 23° ENE
Cosmos 921 Rocket 3.0 18:49:23 10° SSW 18:53:52 83° ESE 18:58:25 10° NNE
USA 229 DEB 3.6 18:48:02 10° SW 18:54:33 88° NW 19:01:27 10° NE
USA 229 3.6 18:48:08 10° SW 18:54:40 88° NW 19:01:33 10° NE
CZ-2D R/B 3.7 18:50:53 10° S 18:54:44 65° W 18:58:38 10° NNW
STARLINK-31 3.8 18:50:49 10° WSW 18:54:48 65° NNW 18:57:25 21° NE
STARLINK-1033 4.3 18:52:26 10° SSW 18:56:13 36° SE 18:57:26 29° E
STARLINK-69 4.0 18:52:40 10° WSW 18:56:39 59° NNW 18:59:13 21° NE
STARLINK-21 3.9 18:54:09 10° WSW 18:58:08 61° NNW 19:00:36 22° NE
CZ-2C R/B 3.9 18:54:04 14° SE 18:58:29 35° ENE 19:03:39 10° N
Cosmos 1812 2.7 18:55:19 10° N 18:59:13 82° W 19:03:03 10° S
STARLINK-45 4.1 18:56:04 10° WSW 19:00:01 55° NNW 19:02:27 21° NE
SJ 16-02 3.5 18:58:12 10° NNE 18:58:44 11° NE 18:58:44 11° NE
Cosmos 1346 Rocket 3.2 18:56:59 10° SSE 19:00:44 40° E 19:04:29 10° NNE
STARLINK-70 4.1 18:57:37 10° WSW 19:01:35 55° NNW 19:03:57 22° NE
NOSS 3-1 (A) 3.2 18:56:23 10° SSW 19:01:45 68° ESE 19:07:45 11° NE
YAOGAN 1 3.7 18:57:48 10° S 19:01:57 46° W 19:06:08 10° NNW
STARLINK-76 4.0 18:59:09 10° WSW 19:03:07 57° NNW 19:05:23 23° NE
Cosmos 2369 Rocket 2.1 18:57:46 10° SSW 19:03:22 74° ESE 19:09:04 10° NNE
STARLINK-23 4.1 19:00:49 10° WSW 19:04:46 55° NNW 19:06:58 24° NE
MOS 1 4.5 18:59:57 10° SE 19:05:22 49° ENE 19:10:49 10° N
STARLINK-1024 4.0 19:02:15 10° SSW 19:06:10 43° SE 19:07:02 37° ESE
STARLINK-32 4.1 19:02:30 10° WSW 19:06:27 54° NNW 19:08:35 25° NE
STARLINK-40 4.1 19:04:09 10° WSW 19:08:05 52° NNW 19:10:09 25° NE
Cosmos 1656 Rocket 4.1 19:03:31 10° S 19:08:30 37° ESE 19:10:49 26° ENE
STARLINK-44 4.2 19:05:49 10° WSW 19:09:45 51° NNW 19:11:44 26° NE
Cosmos 1633 Rocket 3.6 19:06:45 10° SSW 19:11:01 58° W 19:15:18 10° N
FALCON 9 DEB 4.2 19:08:17 10° NW 19:11:23 30° NNE 19:11:26 30° NNE
STARLINK-37 4.3 19:07:38 10° WSW 19:11:32 48° NNW 19:13:29 26° NNE
STARLINK-36 4.3 19:09:10 10° WSW 19:13:04 49° NNW 19:14:55 27° NNE
STARLINK-68 4.4 19:11:04 10° WSW 19:14:56 45° NNW 19:16:45 26° NNE
Cosmos 1933 Rocket 3.5 19:11:13 10° S 19:15:34 60° E 19:19:55 10° NNE
STARLINK-29 4.4 19:12:36 10° NW 19:15:27 28° NNE 19:15:27 28° NNE
STARLINK-1032 3.7 19:12:04 10° SW 19:16:05 52° SE 19:16:37 48° ESE
STARLINK-63 4.4 19:12:38 10° WSW 19:16:30 45° NNW 19:18:14 27° NNE
CZ-4 R/B 4.0 19:14:26 10° SSW 19:17:50 23° W 19:21:13 10° NW
STARLINK-35 4.4 19:14:10 10° WSW 19:18:03 45° NNW 19:19:41 29° NNE
STARLINK-51 4.4 19:15:53 10° W 19:19:44 44° NNW 19:21:19 29° NNE
STARLINK-1023 3.6 19:17:12 10° WSW 19:20:09 44° NNW 19:20:27 42° N
STARLINK-1011 3.6 19:16:58 10° SW 19:21:01 57° SE 19:21:21 55° ESE
STARLINK-30 4.5 19:17:32 10° W 19:21:23 43° NNW 19:22:54 29° NNE
Cosmos 2263 4.1 19:15:47 10° SSW 19:21:33 74° ESE 19:27:19 10° NNE
STARLINK 1040 4.0 19:19:54 10° W 19:22:30 33° NNW 19:22:31 33° NNW
Cosmos 2233 Rocket 4.3 19:16:38 10° SSW 19:22:43 67° W 19:28:53 10° N
STARLINK-72 4.5 19:19:12 10° W 19:23:03 42° NNW 19:24:29 30° NNE
Lacrosse 5 rocket 3.9 19:20:47 10° NW 19:23:20 15° N 19:25:18 12° NNE
Aureole 2 Rocket 3.2 19:23:19 10° SW 19:25:46 37° WNW 19:25:48 37° WNW
STARLINK-1036 3.5 19:21:56 10° SW 19:26:01 63° SE 19:26:10 62° SE
NOSS 2-3 (C) 3.5 19:23:02 10° SSW 19:27:18 81° SE 19:29:03 39° NE
STARLINK-1007 4.0 19:25:44 10° W 19:28:40 38° NNW 19:28:43 38° NNW
SPOT 3 Rocket 3.8 19:28:41 44° ENE 19:28:48 44° ENE 19:33:43 10° N
Meteor 1-27 Rocket 4.5 19:23:56 10° NNW 19:29:18 53° W 19:34:44 10° S
STARLINK-1014 3.7 19:26:09 10° WSW 19:29:28 50° NNW 19:29:41 49° NNW
STARLINK-1044 3.5 19:26:51 10° SW 19:30:56 69° SE 19:30:56 69° SE
Meteor 1-20 Rocket 4.0 19:27:36 10° S 19:32:59 66° E 19:38:27 10° NNE
Cosmos 1072 Rocket 4.4 19:29:54 10° S 19:36:14 68° E 19:42:32 10° NNE
ARGOS 3.0 19:36:21 31° SSE 19:39:02 75° ENE 19:44:29 10° N
Resurs 01 Rocket 4.0 19:43:00 12° NNE 19:43:00 12° NNE 19:43:25 10° N
STARLINK-1037 3.6 19:36:48 10° SW 19:40:32 71° SSW 19:40:32 71° SSW
STARLINK-60 4.5 19:40:14 10° NW 19:42:19 36° NW 19:42:19 36° NW
Cosmos 2242 Rocket 3.8 19:39:12 10° NNW 19:43:44 74° W 19:46:11 27° S
STARLINK-1059 3.8 19:41:44 10° SW 19:45:18 65° SW 19:45:18 65° SW
Meteor 2-11 Rocket 4.3 19:40:17 10° S 19:46:20 71° E 19:52:24 10° NNE
Cosmos 2297 Rocket 4.4 19:45:06 10° NNE 19:45:46 11° NNE 19:45:46 11° NNE
STARLINK-1057 4.1 19:46:43 10° SW 19:50:05 58° WSW 19:50:05 58° WSW
Cosmos 1513 Rocket 4.3 19:46:35 10° S 19:52:38 83° E 19:58:47 10° N
STARLINK-1034 4.3 19:51:43 10° WSW 19:54:53 51° WSW 19:54:53 51° WSW
USA 267 3.2 19:57:57 58° ESE 19:58:19 59° SE 20:04:44 10° SSW
Meteor 1-19 Rocket 4.5 19:53:20 10° N 19:58:12 55° NE 19:58:12 55° NE
Cosmos 1898 Rocket 4.4 19:54:51 10° N 19:58:05 35° NNE 19:58:05 35° NNE
Cosmos 1891 Rocket 4.4 19:55:04 10° S 20:01:12 84° W 20:07:31 10° N
Cosmos 2227 Rocket 4.4 20:02:26 10° N 20:03:09 12° NNE 20:03:09 12° NNE
Cosmos 44 3.7 20:02:11 10° NW 20:05:58 52° W 20:05:58 52° W
Cosmos 1943 Rocket 4.1 20:08:25 10° WSW 20:13:05 27° NW 20:17:46 10° N
H-2A R/B 3.5 20:23:12 15° SSW 20:27:02 36° W 20:32:00 10° NNW
USA 234 3.8 20:32:59 47° N 20:32:59 47° N 20:38:30 10° NW
Nadezhda 4 Rocket 4.2 20:27:32 10° N 20:33:03 67° NW 20:33:03 67° NW
Timation 2 Rocket 4.4 20:30:00 10° NNW 20:35:37 61° N 20:35:37 61° N
SJ 16-02 3.9 20:34:55 10° NNW 20:35:45 15° NNW 20:35:45 15° NNW
CENTAUR R/B 4.3 21:09:08 10° NNW 21:13:50 30° N 21:13:50 30° N
